Flag for U.S.A. Weather past 2 weeks in Dallas, Texas, U.S.A.

Now
79 °F

Passing clouds.


Feels Like: 82 °F
Forecast: 70 / 87 °F
Wind: 9 mph from South

Location: Dallas Love Field

Current Time: Sep 18, 2014 at 9:39:31 PM

Latest Report: Sep 18, 2014 at 8:53 PM


Visibility: 10 mi

Pressure: 29.87 "Hg

Humidity: 72%

Dew point: 69 °F

Location of DallasLocation

Historic Weather in Dallas — Graph

°F

Dallas temperature yesterday

Maximum temperature yesterday: 94 °F (at 2:53 PM)
Minimum temperature yesterday: 77 °F (at 5:53 AM)
Average temperature yesterday: 83 °F

Past Weeks' High & Low Weather Summary

 TemperatureHumidityPressure
High100 °F (Sep 10, 4:53 PM)96% (Sep 12, 10:53 AM)30.29 "Hg (Sep 12, 10:53 AM)
Low57 °F (Sep 13, 5:53 AM)33% (Sep 5, 4:53 PM)29.70 "Hg (Sep 10, 5:53 PM)
Average80 °F65%30.00 "Hg
* Reported Sep 3 8:53 PM — Sep 18 8:00 PM, Dallas, Weather by CustomWeather, © 2014

Note: Actual official high and low records may vary slightly from our data, if they occured in-between our weather recording intervals... More about our weather records

Advertising

Dallas weather history for previous 24 hours

 ConditionsComfort  
Time TempWeatherWind HumidityBarometerVisibility
8:00 PM
Sep 18
82 °FCloudy.12 mph67%29.88 "Hg10 mi
6:53 PM85 °FCloudy.7 mph59%29.84 "Hg10 mi
5:53 PM85 °FCloudy.9 mph59%29.82 "Hg10 mi
4:53 PM85 °FCloudy.12 mph59%29.81 "Hg10 mi
3:53 PM87 °FBroken clouds.14 mph59%29.82 "Hg10 mi
2:53 PM88 °FBroken clouds.10 mph55%29.85 "Hg10 mi
1:53 PM87 °FPartly sunny.14 mph57%29.86 "Hg10 mi
1:03 PM86 °FPartly sunny.7 mph61%29.92 "Hg10 mi
12:53 PM86 °FBroken clouds.8 mph61%29.90 "Hg10 mi
11:53 AM83 °FPartly sunny.6 mph70%29.90 "Hg10 mi
10:53 AM81 °FPartly sunny.7 mph72%29.90 "Hg10 mi
10:00 AM80 °FMostly cloudy.6 mph79%29.94 "Hg10 mi
8:53 AM77 °FOvercast.7 mph85%29.90 "Hg10 mi
7:53 AM76 °FMostly cloudy.6 mph88%29.88 "Hg9 mi
6:53 AM76 °FPartly cloudy.7 mph88%29.84 "Hg10 mi
5:53 AM76 °FPartly cloudy.5 mph88%29.86 "Hg10 mi
4:53 AM76 °FMostly cloudy.No wind85%29.86 "Hg10 mi
3:53 AM76 °FPartly cloudy.5 mph88%29.86 "Hg10 mi
2:53 AM77 °FPassing clouds.7 mph85%29.87 "Hg10 mi
1:53 AM78 °FPartly cloudy.3 mph82%29.87 "Hg10 mi
12:53 AM79 °FMostly cloudy.8 mph77%29.88 "Hg10 mi
11:53 PM
Sep 17
80 °FOvercast.10 mph71%29.89 "Hg10 mi
10:53 PM83 °FMostly cloudy.12 mph63%29.88 "Hg10 mi
9:53 PM83 °FMostly cloudy.10 mph63%29.86 "Hg10 mi
Weather by CustomWeather, © 2014

See weather overviewHow to use our weather pages